This is the latest recevied weather packets stored in our database for station/object N0KWA. If no packets are shown the sender has not sent any weather packets the latest 10 day(s).
| Time | Temp. | Humidity | Pressure | Rain* | Wind** | Luminosity | Snow |
|---|---|---|---|---|---|---|---|
| 1777935350 | 23.33° C | 50% | 1016.3 hPa | 0 mm | - | 34 W/m² | - |
| 1777935047 | 23.33° C | 53% | 1016.3 hPa | 0 mm | - | 7 W/m² | - |
| 1777934743 | 23.33° C | 54% | 1016.6 hPa | 0 mm | - | 6 W/m² | - |
| 1777934441 | 23.89° C | 52% | 1016.5 hPa | 0 mm | - | 7 W/m² | - |
| 1777934137 | 23.89° C | 52% | 1016.5 hPa | 0 mm | - | 12 W/m² | - |
| 1777933833 | 23.89° C | 51% | 1016.3 hPa | 0 mm | - | 11 W/m² | - |
| 1777933530 | 23.89° C | 52% | 1016.5 hPa | 0 mm | - | 9 W/m² | - |
| 1777933227 | 23.89° C | 52% | 1016.7 hPa | 0 mm | - | 8 W/m² | - |
| 1777932925 | 23.89° C | 51% | 1016.6 hPa | 0 mm | - | 8 W/m² | - |
| 1777932621 | 23.89° C | 50% | 1016.6 hPa | 0 mm | - | 8 W/m² | - |
| 1777932318 | 24.44° C | 52% | 1017 hPa | 0 mm | - | 9 W/m² | - |
| 1777932015 | 24.44° C | 52% | 1016.8 hPa | 0 mm | - | 9 W/m² | - |
| 1777931711 | 23.89° C | 51% | 1016.7 hPa | 0 mm | - | 9 W/m² | - |
| 1777931409 | 24.44° C | 53% | 1016.7 hPa | 0 mm | - | 10 W/m² | - |
| 1777931105 | 24.44° C | 52% | 1016.8 hPa | 0 mm | - | 10 W/m² | - |
| 1777930801 | 24.44° C | 52% | 1016.6 hPa | 0 mm | - | 10 W/m² | - |
| 1777930497 | 24.44° C | 52% | 1016.8 hPa | 0 mm | - | 12 W/m² | - |
| 1777930195 | 24.44° C | 50% | 1016.9 hPa | 0 mm | - | 14 W/m² | - |
| 1777929890 | 24.44° C | 50% | 1016.8 hPa | 0 mm | - | 17 W/m² | - |
| 1777929588 | 24.44° C | 53% | 1017 hPa | 0 mm | - | 15 W/m² | - |
| 1777929284 | 24.44° C | 51% | 1016.9 hPa | 0 mm | - | 23 W/m² | - |
| 1777928982 | 25° C | 50% | 1017 hPa | 0 mm | - | 15 W/m² | - |
| 1777928679 | 25° C | 50% | 1016.8 hPa | 0 mm | - | 35 W/m² | - |
| 1777928376 | 25° C | 48% | 1016.6 hPa | 0 mm | - | 143 W/m² | - |
| 1777928073 | 25° C | 48% | 1017 hPa | 0 mm | - | 64 W/m² | - |
* Rain latest hour (hover to see other rain measurements)
** Current wind speed in m/s (hover to see current wind gust speed)